loading
|
Showing default

GREB, 731

Orbit data source: Space-Track

GREB, 731 is an American payload satellite in LEO that was launched on Sat, 11 Jan 1964 UTC via a THOR SLV-2A AGENA D launch vehicle from the Air Force Western Test Range (AFWTR). Payloads include a variety of satellites, spacecraft, and rockets equipped with specific instruments for various scientific and technological missions. These include communications satellites like Starlink; space stations such as the ISS; scientific satellites like the Hubble; Earth observation satellites from companies like Planet Labs, Umbra, and HawkEye 360; GPS; miniature CubeSats for education and research; and military/defense satellites.

Loading next visibility...
Loading greatness...
GREB details
Identifier
731, 1964-001E
Orbit
LEO
Last TLE update10 hours ago
Origin
Flag of USNRO/NRL (US)
ManufacturerNRL
Mission statusUnknown
MissionDefense Sigint
Bus & MotorNRL 20", Unknown motor
Mass29 kg wet, 29 kg dry
Launch date (UTC)
1964-01-11 (61 years ago)
Launch vehicle
THOR SLV-2A AGENA D
Launch site
Air Force Western Test Range (AFWTR)
Object type
Payload
Rocket body
Debris
Radar Cross Section0.53 m², Medium (>0.1 m² and < 1m²)

Expand to show TLE details & history

TLE from 10 hours ago
0 GREB
1 00731U 64001E   24258.89972223  .00000286  00000-0  24729-3 0  9998
2 00731  69.9058 202.5963 0011674 139.7792 220.4179 13.96124035 88201
Epoch: 2024-09-14T21:35Z
Definitive object data (Epoch: 2024-09-14T21:35:36Z)
Latitude-0.00004°
Longitude-115.65453°
Altitude916.034 km
Speed7.391 km/s
True Right ascension13h 30m 23s
True Declination0° 00' 00"
Sunlit
Object was in daylight at TLE epoch
Predictive object data (real-time)
Latitude-49.5896°
Longitude88.78229°
Altitude926.535 km
Speed7.388 km/s
Apparent Right ascension07h 40m 50s
Apparent Declination-67° 51' 45"
Sunlit
Object is in daylight
Predictive observer data (real-time)
Local Sidereal Time23:56:54
Azimuth150.736° SSE
Elevation-46.136°
Doppler factor1
Orbital elements
Apogee913.803 km
Perigee896.798 km
Semi-major axis7,283.438 km
Eccentricity0.0011674
Inclination69.9058°
RAAN202.5963°
Arg. of periapsis139.7792°
True anomaly220.33126°
Mean anomaly220.4179°
Eccentric anomaly220.37457°
Mean motion3.49171 °/min
BSTAR0.00024729
Period103.1 mins
No data available
Other satellites on launch #1 in the year 1964 (1964-01-11 UTC)

GREB Visibility forecast

Observer location: 39.9160978°, -105.1181434

GREB is not visible in the next 10 days
Span
Click to sort rows by Start time (UTC) header in descending order
Start Az.
Max El. time (UTC)
Max El. Az.
Max El.
End time (UTC)
End Az.